This is the latest recevied weather packets stored in our database for station/object AA4OM-2. If no packets are shown the sender has not sent any weather packets the latest 10 day(s).
| Time | Temp. | Humidity | Pressure | Rain* | Wind** | Luminosity | Snow |
|---|---|---|---|---|---|---|---|
| 1777682759 | 12.78° C | 61% | 1017.2 hPa | 0 mm | - | 2 W/m² | - |
| 1777682456 | 13.33° C | 58% | 1017.2 hPa | 0 mm | - | 3 W/m² | - |
| 1777682155 | 13.89° C | 57% | 1017.3 hPa | 0 mm | - | 5 W/m² | - |
| 1777681851 | 13.89° C | 52% | 1017.1 hPa | 0 mm | - | 7 W/m² | - |
| 1777681547 | 14.44° C | 51% | 1017.1 hPa | 0 mm | - | 9 W/m² | - |
| 1777681245 | 15° C | 44% | 1016.9 hPa | 0 mm | - | 13 W/m² | - |
| 1777680943 | 15.56° C | 41% | 1016.7 hPa | 0 mm | - | 22 W/m² | - |
| 1777680639 | 15.56° C | 43% | 1016.7 hPa | 0 mm | - | 25 W/m² | - |
| 1777680338 | 16.11° C | 40% | 1016.5 hPa | 0 mm | - | 33 W/m² | - |
| 1777680035 | 16.11° C | 40% | 1016.4 hPa | 0 mm | - | 45 W/m² | - |
| 1777679730 | 16.11° C | 42% | 1016.5 hPa | 0 mm | - | 52 W/m² | - |
| 1777679426 | 16.67° C | 37% | 1016.2 hPa | 0 mm | - | 57 W/m² | - |
| 1777679122 | 16.67° C | 37% | 1016.1 hPa | 0 mm | - | 70 W/m² | - |
| 1777678820 | 16.67° C | 36% | 1016.1 hPa | 0 mm | - | 77 W/m² | - |
| 1777678518 | 16.67° C | 35% | 1016.1 hPa | 0 mm | - | 75 W/m² | - |
| 1777678215 | 17.22° C | 33% | 1015.9 hPa | 0 mm | - | 81 W/m² | - |
| 1777677911 | 17.22° C | 35% | 1016.1 hPa | 0 mm | - | 120 W/m² | - |
| 1777677608 | 17.22° C | 35% | 1016 hPa | 0 mm | - | 100 W/m² | - |
| 1777677306 | 17.22° C | 38% | 1016 hPa | 0 mm | - | 119 W/m² | - |
| 1777677004 | 16.67° C | 36% | 1015.9 hPa | 0 mm | - | 133 W/m² | - |
| 1777676703 | 17.22° C | 35% | 1015.7 hPa | 0 mm | - | 127 W/m² | - |
| 1777676400 | 17.22° C | 33% | 1015.8 hPa | 0 mm | - | 125 W/m² | - |
| 1777676098 | 17.22° C | 35% | 1015.5 hPa | 0 mm | - | 135 W/m² | - |
| 1777675793 | 17.22° C | 34% | 1015.4 hPa | 0 mm | - | 154 W/m² | - |
| 1777675491 | 17.22° C | 32% | 1015.7 hPa | 0 mm | - | 143 W/m² | - |
* Rain latest hour (hover to see other rain measurements)
** Current wind speed in m/s (hover to see current wind gust speed)